マクノート彗星

P/2008 J3 ( McNaught )

English version
Home page
Updated on March 27, 2010

---------------------------------------------------------------------

・ プロフィール

発見日 2008年5月10日
発見光度 18.4等
発見者 R. H. McNaught (Siding Spring)

・ 写真集

・ 軌道要素

The following orbital elements are taken from MPC 67971:

Epoch 2009 Mar. 30.0 TT = JDT 2454920.5
T 2009 Mar. 10.7357 TT                                  MPC
q   2.287076             (2000.0)            P               Q
n   0.1283603      Peri.    4.4132      +0.9704227      -0.2299771
a   3.892084       Node     9.8557      +0.2062824      +0.6319444
e   0.412378       Incl.   25.3998      +0.1254091      +0.7401059
P   7.68
From 188 observations 2008 May 10-2009 Dec. 25, mean residual 0".7.

・ 星図

・ 光度変化

        m1 = 7.5 + 5 logΔ + 20.0 log r(t + 50)

---------------------------------------------------------------------

軌道要素はMPCのEphemerides and Orbital Elementsに掲載されたものです。
星図はステラナビゲータ Ver.8 (アストロアーツ) で作成したものです。
光度グラフはComet for Windowsで作成したものです。

---------------------------------------------------------------------

Copyright(C) Seiichi Yoshida (comet@aerith.net). All rights reserved.